Printer-friendly version

IAU Minor Planet Center

Minor Planet Center

MPEC 2007-H02 : 2007 GV5

The following Minor Planet Electronic Circular may be linked-to from your own Web pages, but must not otherwise be redistributed electronically.


Read MPEC 2007-H01 Read MPEC 2007-H03


M.P.E.C. 2007-H02                                Issued 2007 Apr. 16, 09:38 UT

     The Minor Planet Electronic Circulars contain information on unusual
         minor planets and routine data on comets.  They are published
   on behalf of Commission 20 of the International Astronomical Union by the
          Minor Planet Center, Smithsonian Astrophysical Observatory,
                          Cambridge, MA 02138, U.S.A.

             Prepared using the Tamkin Foundation Computer Network

                              MPC@CFA.HARVARD.EDU
          URL http://www.cfa.harvard.edu/iau/mpc.html  ISSN 1523-6714

                                   2007 GV5

Observations:
     K07G05V* C2007 04 14.27483 12 22 36.30 -08 10 30.8          21.4 V EH002G96
     K07G05V  C2007 04 14.28046 12 22 34.24 -08 10 31.5          21.6 V EH002G96
     K07G05V  C2007 04 14.28603 12 22 32.26 -08 10 32.6          21.5 V EH002G96
     K07G05V  C2007 04 14.29159 12 22 30.25 -08 10 34.1          22.0 V EH002G96
     K07G05V  C2007 04 14.30156 12 22 26.65 -08 10 35.9          20.7 V EH002G96
     K07G05V  C2007 04 14.30245 12 22 26.40 -08 10 36.1          21.5 V EH002G96
     K07G05V  C2007 04 14.30336 12 22 26.00 -08 10 35.9          22.1 V EH002G96
     K07G05V  C2007 04 14.30424 12 22 25.68 -08 10 36.0          21.4 V EH002G96
     K07G05V  C2007 04 14.33798 12 22 13.51 -08 10 43.3                 EH002G96
     K07G05V  C2007 04 14.33885 12 22 13.22 -08 10 43.0          21.5 V EH002G96
     K07G05V  C2007 04 14.33973 12 22 13.00 -08 10 43.3          21.1 V EH002G96
     K07G05V  C2007 04 14.34063 12 22 12.61 -08 10 42.7                 EH002G96
     K07G05V FC2007 04 14.91324 12 18 48.59 -08 12 37.4                 EH002246
     K07G05V FC2007 04 14.91441 12 18 48.15 -08 12 38.6                 EH002246
     K07G05V  C2007 04 15.26001 12 16 41.73 -08 13 41.7          22.2 V EH002G96
     K07G05V  C2007 04 15.26877 12 16 38.49 -08 13 43.6          21.1 V EH002G96
     K07G05V  C2007 04 15.27762 12 16 35.11 -08 13 45.3          20.9 V EH002G96
     K07G05V  C2007 04 15.28647 12 16 31.87 -08 13 47.1          21.2 V EH002G96
     K07G05V  C2007 04 16.24054 12 10 32.90 -08 16 44.3          21.6 V EH002G96
     K07G05V  C2007 04 16.24927 12 10 29.44 -08 16 47.0                 EH002G96
     K07G05V  C2007 04 16.25789 12 10 26.02 -08 16 47.5          20.8 V EH002G96
     K07G05V  C2007 04 16.26661 12 10 22.63 -08 16 49.2          21.5 V EH002G96
     K07G05V  C2007 04 16.28247 12 10 16.39 -08 16 51.8          21.6 V EH002G96
     K07G05V  C2007 04 16.28334 12 10 16.06 -08 16 52.2          21.3 V EH002G96
     K07G05V  C2007 04 16.28423 12 10 15.70 -08 16 52.3          21.1 V EH002G96
     K07G05V  C2007 04 16.28512 12 10 15.34 -08 16 52.0          21.3 V EH002G96

Observer details:
246 Klet Observatory-KLENOT.  Observers M. Tichy, J. Ticha.  Measurer M. Tichy.
    1.06-m KLENOT Telescope + CCD.
G96 Mt. Lemmon Survey.  Observers R. E. Hill, R. A. Kowalski.  Measurers
    E. C. Beshore, E. J. Christensen, G. J. Garradd, A. R. Gibbs, A. D. Grauer,
    R. E. Hill, R. A. Kowalski, S. M. Larson, R. H. McNaught.  1.5-m reflector
    + CCD.

Orbital elements:
2007 GV5                                                 Earth MOID = 0.1255 AU
Epoch 2007 Apr. 10.0 TT = JDT 2454200.5                 MPC
M 339.42501              (2000.0)            P               Q
n   0.27156297     Peri.  307.89023     +0.78775225     +0.60841808
a   2.3616870      Node    15.43020     -0.38710288     +0.61056196
e   0.8227353      Incl.   21.21972     -0.47916360     +0.50699264
P   3.63           H   21.9           G   0.15           U   9
Residuals in seconds of arc
070414 G96  0.2+  0.8-    070414 G96  0.7-  0.6-    070416 G96  0.3+  0.4-
070414 G96  0.4-  0.4-    070414 G96  0.7+  0.7-    070416 G96  0.2-  1.5-
070414 G96  0.0   0.4-    070414 G96  0.3-  0.0     070416 G96  0.7-  0.4-
070414 G96  0.2-  0.8-    070414 246  1.6+  1.6+    070416 G96  0.1-  0.6-
070414 G96  0.4-  0.7-    070414 246  1.5+  0.6+    070416 G96  0.1-  0.4-
070414 G96  0.6+  0.7-    070415 G96  1.5-  0.2-    070416 G96  0.1+  0.6-
070414 G96  0.5-  0.3-    070415 G96  0.7-  0.4-    070416 G96  0.1-  0.5-
070414 G96  0.5-  0.2-    070415 G96  1.4-  0.5-    070416 G96  0.2-  0.1-
070414 G96  1.1-  1.1-    070415 G96  0.1-  0.6-

Ephemeris:
2007 GV5                 a,e,i = 2.36, 0.82, 21                  q = 0.4186
Date    TT    R. A. (2000) Decl.     Delta      r     Elong.  Phase     V
2007 04 10    12 45.24   -07 55.5    0.460    1.459   173.2     4.6    21.4
2007 04 12    12 35.25   -08 02.5    0.436    1.433   168.9     7.7    21.4
2007 04 14    12 24.21   -08 09.4    0.414    1.406   164.4    11.1    21.4
2007 04 16    12 12.09   -08 15.8    0.393    1.379   159.5    14.7    21.4
2007 04 18    11 58.83   -08 21.5    0.374    1.351   154.4    18.7    21.4
2007 04 20    11 44.42   -08 26.3    0.357    1.324   149.1    23.0    21.4
2007 04 22    11 28.87   -08 29.8    0.342    1.296   143.4    27.5    21.4
2007 04 24    11 12.24   -08 31.7    0.329    1.268   137.5    32.4    21.4
2007 04 26    10 54.60   -08 31.5    0.317    1.239   131.4    37.5    21.4
2007 04 28    10 36.11   -08 28.9    0.308    1.210   125.0    42.9    21.4
2007 04 30    10 16.93   -08 23.6    0.301    1.181   118.5    48.5    21.5
2007 05 02    09 57.28   -08 15.4    0.296    1.152   112.0    54.2    21.5
2007 05 04    09 37.40   -08 04.2    0.294    1.122   105.3    60.1    21.6
2007 05 06    09 17.53   -07 50.1    0.293    1.092    98.7    65.9    21.8
2007 05 08    08 57.88   -07 33.3    0.294    1.062    92.2    71.8    21.9
2007 05 10    08 38.64   -07 14.0    0.297    1.031    85.8    77.6    22.0

Timothy B. Spahr             (C) Copyright 2007 MPC           M.P.E.C. 2007-H02

Read MPEC 2007-H01 Read MPEC 2007-H03


Our Web policy. Index to the CBAT/MPC/ICQ pages.


Valid HTML 4.01!